STARLINK-11586, 63009

Orbit data source: Space-Track

STARLINK-11586, 63009 is a payload satellite owned by SpaceX/Seattle (US) in LEO that was launched on Sat, 15 Feb 2025 UTC via an FALCON 9 launch vehicle from the Air Force Eastern Test Range (AFETR). Payload-class satellites include a variety of spacecraft equipped with specific instruments for various scientific and technological missions. These include communications satellites like Starlink; space stations such as the ISS; scientific satellites like the Hubble; Earth observation satellites from companies like Planet Labs, Umbra, and HawkEye 360; GPS; miniature CubeSats for education and research; and military/defense satellites.

Loading next visibility...
Identifier
63009, 2025-032E
Orbit
LEO
Country
Flag of USUS
Related business
Manufacturer
SpaceX/Seattle
Mission
Operational Commercial Communications
Bus & Motor
STARLINK V2MD, Unknown motor
Mass
960 kg wet, ~910 kg dry
Launch date (UTC)
2025-02-15 (8 months ago)
Launch vehicle
FALCON 9
Launch site
Air Force Eastern Test Range (AFETR)
Object type
Payload
Rocket body
Debris
Shape & HBR
Box + 2 Pan, 18.1 m
Radar Cross Section
36.964 m², Large (>1 m²)

Expand to show TLE details & history
Last TLE update: 2 days ago

TLE from 2 days ago
0 STARLINK-11586
1 63009U 25032E   25300.35562522  .00263702  00000-0  19926-2 0  9999
2 63009  42.9998 279.0506 0002529 250.8527 109.2067 15.70856402 41241
Epoch: 2025-10-27T08:32Z
TLE epoch observation values (Epoch: 2025-10-27T08:32:06.019Z)
Latitude
Longitude
115.06687°
Altitude
356.78 km
Speed
7.697 km/s
True Right ascension
18h 36m 12s
True Declination
0° 00' 00"
Sunlit
Object was in daylight at epoch
Visualization orbit readout
Latitude
Unknown
Longitude
Unknown
Altitude
Unknown
Speed
Unknown
Apparent Right ascension
Unknown
Apparent Declination
Unknown
Sunlit
N/A
Visualization observer readout
Local Sidereal Time
00:08:05
Azimuth
Unknown
Elevation
Unknown
Doppler factor
Unknown
Orbital elements
Apogee altitude
360.133 km
Perigee altitude
356.726 km
Semi-major axis
6,736.567 km
Eccentricity
0.00025
Inclination
42.9998°
RAAN
279.0506°
Arg. of periapsis
250.8527°
True anomaly
109.23406°
Mean anomaly
109.2067°
Eccentric anomaly
109.22038°
Mean motion
3.92541 °/min
Orbital period
91.71 mins
BSTAR
0.0019926
Loading maneuver chart data...
Computing Atmospheric mass density...
Loading historical data...
Loading historical data...
Loading historical data...
Loading historical data...
Loading historical data...
Loading historical data...
Loading historical data...

Documentation

Showing up to 5 results
|